Regional Weather Roundup
Issued by NWS Burlington, VT

Home | Current Version | Previous Version | Text Only | Print | Product List | Glossary On
Versions: 1 2 3 4 5 6 7 8 9 10 11 12 13 14 15 16 17 18 19 20 21 22 23 24 25 26 27 28 29 30 31 32 33 34 35 36 37 38 39 40 41 42 43 44 45 46 47 48 49 50
000
ASUS41 KBTV 192010
RWRBTV
VERMONT REGIONAL WEATHER ROUNDUP
NATIONAL WEATHER SERVICE BURLINGTON VT
400 PM EDT THU APR 19 2018

NOTE: "FAIR" INDICATES FEW OR NO CLOUDS BELOW 12,000 FEET WITH NO
SIGNIFICANT WEATHER AND/OR OBSTRUCTIONS TO VISIBILITY.

* THESE REPORTS ARE NOT UNDER NWS QUALITY CONTROL AND/OR DO NOT
  REPORT WEATHER SUCH AS PRECIPITATION AND FOG.

VTZ001>019-192100-
_____VERMONT_____


CITY           SKY/WX    TMP DP  RH WIND       PRES   REMARKS
BURLINGTON     CLOUDY    42  27  55 N10       29.76R
MONTPELIER     CLOUDY    38  26  62 N13       29.74R WCI  30
MORRISVILLE    CLOUDY    39  25  57 N12       29.74R WCI  32
ST. JOHNSBURY*   N/A     41  25  53 MISG      29.69R
LYNDONVILLE*   FAIR      38  26  62 W13       29.71R WCI  30
MIDDLEBURY*    LGT RAIN  38  29  70 N10G17    29.75R WCI  31
RUTLAND*       LGT RAIN  37  31  78 NW9       29.73R WCI  30
SPRINGFIELD    LGT RAIN  42  29  59 W9        29.72R
HIGHGATE*      CLOUDY    38  30  72 CALM      29.77R
NEWPORT*       CLOUDY    36  28  74 NW7       29.73R WCI  30
BENNINGTON     LGT SNOW  36  32  85 W6        29.74R FOG     WCI  31

_____LAKE CHAMPLAIN_____


CITY           SKY/WX    TMP DP  RH WIND       PRES   REMARKS
BURTON ISLAND*   N/A     39  32  75 NW13G18     N/A  WCI  32
COLCHESTER RF*   N/A     39  28  65 N12         N/A  WCI  32

$$

NYZ007-026>031-035-052-083-087-192100-
_____NORTHERN NEW YORK_____


CITY           SKY/WX    TMP DP  RH WIND       PRES   REMARKS
PLATTSBURGH    CLOUDY    42  25  50 W10       29.77R
SARANAC LAKE   SNOW      29  28  96 VRB7      29.74R VSB 1/2 WCI  22
MASSENA        CLOUDY    39  29  67 W17       29.84R WCI  30
OGDENSBURG*    PTSUNNY   37  28  72 NW14      29.87R WCI  28
POTSDAM*       CLOUDY    36  27  69 NW12G18   29.84R WCI  27
WATERTOWN      LGT SNOW  35  31  85 NW7       29.89R FOG     WCI  29
FT DRUM        LGT RAIN  35  28  75 NW12G22   29.85R WCI  26
ALBANY         CLOUDY    40  31  70 W17G29    29.79R WCI  31
GLENS FALLS    LGT RAIN  40  31  70 NW9       29.76R

$$
NHZ002-005-011-192100-
_____NEW HAMPSHIRE_____


CITY           SKY/WX    TMP DP  RH WIND       PRES   REMARKS
LEBANON        CLOUDY    44  27  51 NW12      29.70R
KEENE          LGT RAIN  42  31  64 N9        29.71R
MT WASHINGTON  SNOW      23  23 100 NW20        N/A  VSB 0   WCI   8
PLYMOUTH       CLOUDY    42  30  62 W6        29.69R
WHITEFIELD     LGT RAIN  39  31  72 N6        29.68S

$$

_____REGIONAL QUEBEC LOCATIONS_____


CITY           SKY/WX    TMP DP  RH WIND       PRES   REMARKS
MONTREAL       LGT RAIN  39  30  70 W14       29.77R WCI  31
QUEBEC CITY    CLOUDY    39  28  65 SW12      29.70S WCI  32
SHERBROOKE     LGT RAIN  37  28  70 W8        29.71R WCI  31

_____REGIONAL ONTARIO LOCATIONS_____


CITY           SKY/WX    TMP DP  RH WIND       PRES   REMARKS
OTTAWA         FLURRIES  37  23  56 NW17G23   29.86R WCI  28

______KEY______
VSB  - VISIBILITY IN MILES
WCI  - WIND CHILL INDEX
HX   - HEAT INDEX
$$
NNNN



USA.gov is the U.S. government's official web portal to all federal, state and local government web resources and services.